Location: Unspecified
(56.5167°N, 0.0000°E)
Time: 18:45:29
(UTC+01:00)

Cosmos 1674 - Visible Passes

Search period start: 17 January 2019 00:00
Search period end: 27 January 2019 00:00
Orbit: 497 x 519 km, 82.5° (Epoch: 16 January)

Date Brightness Start Highest point End Pass type
(mag) Time Alt. Az. Time Alt. Az. Time Alt. Az.
17 Jan 2.6 18:50:10 10° S 18:54:00 84° E 18:57:53 10° NNE visible
17 Jan 5.6 20:27:50 10° W 20:30:09 15° WNW 20:32:28 10° NNW visible
18 Jan 2.6 18:32:48 10° S 18:36:36 68° E 18:40:28 10° NNE visible
18 Jan 5.4 20:09:57 10° WSW 20:12:38 18° WNW 20:15:20 10° NNW visible
19 Jan 2.8 18:15:30 10° S 18:19:14 55° E 18:23:02 10° NNE visible
19 Jan 5.2 19:52:09 10° WSW 19:55:08 21° WNW 19:58:08 10° NNW visible
20 Jan 3.1 17:58:13 10° SSE 18:01:53 44° E 18:05:35 10° NNE visible
20 Jan 5.0 19:34:26 10° WSW 19:37:38 25° WNW 19:40:52 10° N visible
21 Jan 4.7 19:16:45 10° SW 19:20:10 29° WNW 19:23:36 10° N visible
22 Jan 4.3 18:59:09 10° SW 19:02:42 35° WNW 19:06:18 10° N visible
23 Jan 4.0 18:41:34 10° SW 18:45:15 42° WNW 18:48:58 10° N visible
24 Jan 3.6 18:24:03 10° SSW 18:27:49 51° WNW 18:31:37 10° N visible
25 Jan 3.2 18:06:33 10° SSW 18:10:23 64° WNW 18:14:15 10° N visible
25 Jan 5.8 19:45:39 10° WNW 19:46:48 11° NW 19:47:56 10° NW visible
26 Jan 5.6 19:27:23 10° W 19:29:15 13° NW 19:31:06 10° NNW visible
